Location: Ariel
(45.9570°N, 122.5700°W)
Time: 23:32:25
(UTC-07:00)

Transit 2A Rocket - Pass Details

Date: 23 July 2019
Orbit: 590 x 913 km, 66.7° (Epoch: 24 August)

Event Time Altitude Azimuth Distance (km) Brightness Sun altitude
Exits shadow 01:55:06 - 119° (ESE) 2,625 7.6 -23.4°
Reaches altitude 10° 01:56:00 10° 110° (ESE) 2,544 7.6 -23.4°
Maximum altitude 01:56:53 10° 102° (ESE) 2,511 7.6 -23.3°
Drops below altitude 10° 01:57:45 10° 93° (E) 2,526 7.7 -23.3°
Sets 02:02:49 0° 54° (NE) 3,392 9.0 -23.1°
